GW4540 Weather Reports


Display with metric or nautical units.
time (UTC)temp
F
wind
direction
speed
MPH
gust
MPH
rain 1hr
in
rain 24hr
in
rain mn
in
humidity
%
barometer
mb
20260507193051 93 185 6.0 8.0 0.00 0.00 0.00 7 1011.6
20260507191546 92 277 1.0 1.0 0.00 0.00 0.00 8 1012.0
20260507190045 90 36 1.0 2.0 0.00 0.00 0.00 8 1012.3
20260507184543 92 111 3.0 3.0 0.00 0.00 0.00 8 1012.4
20260507183039 91 142 2.0 3.0 0.00 0.00 0.00 8 1012.8
20260507181535 90 317 3.0 3.0 0.00 0.00 0.00 10 1012.9
20260507180030 91 101 1.0 1.0 0.00 0.00 0.00 10 1013.0
20260507174527 87 158 1.0 1.0 0.00 0.00 0.00 11 1013.2
20260507173025 86 199 5.0 6.0 0.00 0.00 0.00 12 1013.3
20260507171524 87 144 0.0 1.0 0.00 0.00 0.00 12 1013.3
20260507170021 85 127 1.0 2.0 0.00 0.00 0.00 14 1013.2
20260507164516 84 121 3.0 3.0 0.00 0.00 0.00 14 1013.5
20260507163014 84 152 2.0 2.0 0.00 0.00 0.00 16 1013.8
20260507161514 82 164 3.0 3.0 0.00 0.00 0.00 17 1013.8
20260507160009 81 121 1.0 1.0 0.00 0.00 0.00 18 1014.0
20260507154504 80 118 0.0 0.0 0.00 0.00 0.00 18 1013.8
20260507153000 77 103 0.0 1.0 0.00 0.00 0.00 20 1013.6
20260507151455 76 66 0.0 1.0 0.00 0.00 0.00 22 1013.7
20260507145951 74 353 2.0 3.0 0.00 0.00 0.00 23 1013.9
20260507144446 71 106 0.0 0.0 0.00 0.00 0.00 26 1013.8
20260507142943 70 181 1.0 2.0 0.00 0.00 0.00 26 1013.7
20260507141438 69 116 0.0 1.0 0.00 0.00 0.00 29 1013.9
20260507135936 67 114 1.0 1.0 0.00 0.00 0.00 29 1013.9
20260507134432 66 125 0.0 0.0 0.00 0.00 0.00 33 1013.5
20260507132929 66 110 0.0 0.0 0.00 0.00 0.00 32 1013.3
20260507131424 66 111 0.0 0.0 0.00 0.00 0.00 31 1013.2
20260507125923 64 125 0.0 0.0 0.00 0.00 0.00 35 1013.0
20260507124419 64 143 0.0 0.0 0.00 0.00 0.00 34 1013.1
20260507122917 65 140 0.0 0.0 0.00 0.00 0.00 33 1013.1
20260507121416 66 118 0.0 0.0 0.00 0.00 0.00 30 1013.1
20260507115911 68 4 4.0 5.0 0.00 0.00 0.00 27 1013.1
20260507114411 66 122 1.0 1.0 0.00 0.00 0.00 29 1013.2
20260507112908 67 36 1.0 2.0 0.00 0.00 0.00 28 1013.1
20260507111405 68 19 3.0 3.0 0.00 0.00 0.00 28 1013.3
20260507105901 67 87 3.0 3.0 0.00 0.00 0.00 28 1013.5
20260507104356 67 57 1.0 2.0 0.00 0.00 0.00 28 1013.5
20260507102851 68 1 4.0 5.0 0.00 0.00 0.00 26 1013.6
20260507101350 68 67 1.0 2.0 0.00 0.00 0.00 25 1013.5
20260507095849 68 29 3.0 3.0 0.00 0.00 0.00 25 1013.7
20260507094344 68 72 1.0 1.0 0.00 0.00 0.00 26 1013.7
20260507092844 68 79 1.0 1.0 0.00 0.00 0.00 27 1013.9
20260507091344 68 123 0.0 0.0 0.00 0.00 0.00 27 1013.7
20260507085839 69 142 0.0 0.0 0.00 0.00 0.00 25 1013.7
20260507084335 68 83 1.0 1.0 0.00 0.00 0.00 26 1013.8
20260507082832 69 121 0.0 0.0 0.00 0.00 0.00 26 1013.9
20260507081326 70 125 1.0 1.0 0.00 0.00 0.00 24 1013.9
20260507075821 70 133 0.0 0.0 0.00 0.00 0.00 24 1014.1
20260507074317 71 142 0.0 0.0 0.00 0.00 0.00 23 1014.0
20260507072814 72 137 1.0 1.0 0.00 0.00 0.00 22 1013.7
20260507071311 72 186 0.0 1.0 0.00 0.00 0.00 22 1014.0
20260507065808 73 213 0.0 1.0 0.00 0.00 0.00 21 1013.8
20260507064306 73 140 1.0 2.0 0.00 0.00 0.00 21 1013.7
20260507062803 73 201 3.0 3.0 0.00 0.00 0.00 21 1013.8
20260507061301 73 175 2.0 2.0 0.00 0.00 0.00 22 1014.1
20260507055758 73 203 1.0 2.0 0.00 0.00 0.00 22 1014.1
20260507054258 73 212 1.0 1.0 0.00 0.00 0.00 22 1014.3
20260507052758 74 231 1.0 1.0 0.00 0.00 0.00 21 1014.0
20260507051255 75 220 1.0 1.0 0.00 0.00 0.00 21 1014.1
20260507045751 75 138 0.0 0.0 0.00 0.00 0.00 21 1013.8
20260507044247 76 143 1.0 1.0 0.00 0.00 0.00 20 1013.8
20260507042742 76 146 1.0 1.0 0.00 0.00 0.00 20 1013.6
20260507041237 77 166 1.0 1.0 0.00 0.00 0.00 20 1013.4
20260507035732 77 146 1.0 1.0 0.00 0.00 0.00 20 1013.2
20260507034228 77 136 0.0 0.0 0.00 0.00 0.00 20 1012.8
20260507032727 78 169 1.0 1.0 0.00 0.00 0.00 19 1012.9
20260507031222 79 201 2.0 2.0 0.00 0.00 0.00 18 1012.5
20260507025720 80 212 1.0 2.0 0.00 0.00 0.00 18 1012.5
20260507024218 80 220 2.0 2.0 0.00 0.00 0.00 18 1012.7
20260507022714 81 182 3.0 3.0 0.00 0.00 0.00 17 1012.7
20260507021213 81 206 2.0 2.0 0.00 0.00 0.00 17 1012.4
20260507015712 82 185 2.0 2.0 0.00 0.00 0.00 17 1012.7
20260507014207 83 193 2.0 5.0 0.00 0.00 0.00 16 1012.4
20260507012705 84 197 5.0 6.0 0.00 0.00 0.00 16 1012.3
20260507011205 84 148 2.0 2.0 0.00 0.00 0.00 16 1012.3
20260507005704 84 146 1.0 2.0 0.00 0.00 0.00 16 1012.3
20260507004200 84 159 3.0 5.0 0.00 0.00 0.00 16 1012.4
20260507002659 85 264 5.0 7.0 0.00 0.00 0.00 16 1012.5
20260507001155 84 250 3.0 3.0 0.00 0.00 0.00 16 1012.7
20260506235655 85 144 2.0 2.0 0.00 0.00 0.00 16 1012.5
20260506234151 86 186 5.0 6.0 0.00 0.00 0.00 15 1012.3
20260506232647 86 159 3.0 3.0 0.00 0.00 0.00 15 1012.5
20260506231144 85 186 1.0 1.0 0.00 0.00 0.00 15 1012.4
20260506225640 85 175 4.0 6.0 0.00 0.00 0.00 16 1012.8
20260506224135 85 21 2.0 3.0 0.00 0.00 0.00 16 1013.0
20260506222631 85 235 4.0 6.0 0.00 0.00 0.00 15 1013.1
20260506221129 87 176 6.0 8.0 0.00 0.00 0.00 15 1013.5
20260506215629 84 37 1.0 1.0 0.00 0.00 0.00 16 1013.6
20260506214125 84 274 3.0 5.0 0.00 0.00 0.00 17 1014.0
20260506212623 85 172 2.0 2.0 0.00 0.00 0.00 16 1014.1
20260506211122 84 219 2.0 2.0 0.00 0.00 0.00 16 1014.5
20260506205619 83 183 1.0 2.0 0.00 0.00 0.00 16 1014.5
20260506204114 83 167 2.0 2.0 0.00 0.00 0.00 17 1014.7
20260506202613 80 166 1.0 2.0 0.00 0.00 0.00 18 1015.0
20260506201109 81 216 2.0 2.0 0.00 0.00 0.00 18 1015.0
20260506195604 81 221 3.0 5.0 0.00 0.00 0.00 18 1014.8
20260506194100 81 95 1.0 1.0 0.00 0.00 0.00 18 1015.2